Weather History for West Palm Beach, FL

Change the Weather History Date:

Tuesday, October 18, 2011

  Actual Average Record
Temperature  
Mean Temperature 78 °F 78 °F  
Max Temperature 81 °F 85 °F 90 °F (1972)
Min Temperature 74 °F 71 °F 52 °F (2009)
Degree Days  
Heating Degree Days 0 0  
Month to date heating degree days 0 0  
Since 1 July heating degree days 0 0  
Cooling Degree Days 13 13  
Month to date cooling degree days 278 260  
Year to date cooling degree days 4170 3468  
Growing Degree Days 27 (Base 50)    
Moisture  
Dew Point 74 °F    
Average Humidity 91    
Maximum Humidity 100    
Minimum Humidity 82    
Precipitation  
Precipitation 2.56 in 0.15 in 4.52 in (1902)
Month to date precipitation 3.48 3.19  
Year to date precipitation 39.25 52.26  
Snow  
Snow 0.00 in - - ()
Month to date snowfall 0.0  
Since 1 July snowfall 0.0  
Since 1 September snowfall 0.0  
Snow Depth 0.00 in    
Sea Level Pressure  
Sea Level Pressure 29.79 in    
Wind  
Wind Speed 10 mph (ESE)    
Max Wind Speed 37 mph    
Max Gust Speed 120 mph    
Visibility 7 miles    
Events Rain    
T = Trace of Precipitation, MM = Missing Value Source: NWS Daily Summary

Daily Weather History Graph

Daily Weather History Graph

Search for Another Location

Airport:

Trip Planner

Search our weather history database for the weather conditions in past years. The results will help you decide how hot, cold, wet, or windy it might be!

Date:

Astronomy

Oct. 18, 2011 Rise Set
Actual Time 7:21 AM EDT 6:49 PM EDT
Civil Twilight 6:57 AM EDT 7:12 PM EDT
Nautical Twilight 6:30 AM EDT 7:39 PM EDT
Astronomical Twilight 6:03 AM EDT 8:06 PM EDT
Moon 11:47 PM EDT (10/18) 12:51 PM EDT (10/18)
Length of Visible Light 12h 15m
Length of Day
11h 28m
Waning Gibbous, 65% of the Moon is Illuminated
Oct 18
Waning Gibbous
Oct 19
Last Quarter
Oct 26
New
Nov 2
First Quarter
Nov 10
Full

Hourly Weather History & Observations

Time (EDT) Temp. Heat Index Dew Point Humidity Pressure Visibility Wind Dir Wind Speed Gust Speed Precip Events Conditions
12:53 AM 77.7 °F - 71.8 °F 82% 29.86 in 10.0 mi SE 6.9 mph - 0.00 in   Mostly Cloudy
1:53 AM 78.1 °F - 72.1 °F 82% 29.84 in 10.0 mi ESE 5.8 mph - 0.01 in Rain Light Rain
2:31 AM 77.0 °F - 73.4 °F 89% 29.84 in 1.0 mi East 15.0 mph 24.2 mph 0.14 in Rain Heavy Rain
2:38 AM 75.2 °F - 71.6 °F 89% 29.83 in 3.0 mi ENE 10.4 mph 20.7 mph 0.37 in Rain Rain
2:53 AM 73.9 °F - 71.1 °F 91% 29.82 in 9.0 mi NE 9.2 mph - 0.40 in Rain Light Rain
3:11 AM 75.2 °F - 71.6 °F 89% 29.82 in 10.0 mi NE 5.8 mph - 0.00 in Rain Light Rain
3:53 AM 75.2 °F - 71.2 °F 87% 29.81 in 10.0 mi NNE 5.8 mph - 0.02 in Rain Light Rain
4:53 AM 74.5 °F - 71.4 °F 90% 29.81 in 1.5 mi Variable 3.5 mph - 0.01 in Rain Heavy Rain
5:03 AM 75.2 °F - 71.6 °F 89% 29.81 in 3.0 mi SSE 4.6 mph - 0.30 in Rain Heavy Rain
5:48 AM 77.0 °F - 73.4 °F 89% 29.81 in 10.0 mi East 10.4 mph 17.3 mph 0.40 in Rain Light Rain
5:53 AM 76.3 °F - 72.5 °F 88% 29.81 in 10.0 mi East 11.5 mph - 0.40 in Rain Light Rain
6:53 AM 75.7 °F - 71.2 °F 86% 29.81 in 9.0 mi East 6.9 mph - 0.03 in Rain Light Rain
7:53 AM 76.8 °F - 72.9 °F 88% 29.82 in 10.0 mi ENE 8.1 mph - 0.03 in Rain Light Rain
8:30 AM 77.0 °F - 73.4 °F 89% 29.83 in 2.0 mi East 8.1 mph - 0.09 in Rain Heavy Rain
8:40 AM 77.0 °F - 71.6 °F 83% 29.83 in 0.5 mi East 11.5 mph - 0.19 in Rain Heavy Rain
8:49 AM 77.0 °F - 71.6 °F 83% 29.84 in 1.0 mi ESE 12.7 mph - 0.33 in Rain Heavy Rain
8:53 AM 76.6 °F - 72.0 °F 85% 29.84 in 1.0 mi ESE 13.8 mph - 0.38 in Rain Heavy Rain
8:55 AM 77.0 °F - 71.6 °F 83% 29.84 in 1.0 mi East 11.5 mph - 0.04 in Rain Heavy Rain
9:03 AM 78.8 °F - 75.2 °F 89% 29.83 in 4.0 mi ENE 11.5 mph - 0.11 in Rain Heavy Rain
9:45 AM 77.0 °F - 73.4 °F 89% 29.83 in 10.0 mi East 9.2 mph - 0.14 in Rain Light Rain
9:53 AM 77.7 °F - 73.6 °F 87% 29.83 in 10.0 mi East 9.2 mph - 0.14 in Rain Light Rain
10:08 AM 78.8 °F - 73.4 °F 83% 29.83 in 10.0 mi East 6.9 mph - 0.01 in Rain Light Rain
10:42 AM 78.8 °F - 75.2 °F 89% 29.83 in 2.0 mi ENE 4.6 mph - 0.10 in Rain Heavy Rain
10:49 AM 78.8 °F - 75.2 °F 89% 29.82 in 0.8 mi North 8.1 mph - 0.26 in Rain Heavy Rain
10:53 AM 77.4 °F - 74.7 °F 91% 29.83 in 0.8 mi West 6.9 mph - 0.36 in Rain Heavy Rain
10:55 AM 77.0 °F - 75.2 °F 94% 29.83 in 1.0 mi WSW 11.5 mph - 0.05 in Rain Heavy Rain
11:08 AM 77.0 °F - 75.2 °F 94% 29.83 in 6.0 mi WSW 6.9 mph - 0.22 in Rain Light Rain
11:53 AM 77.2 °F - 73.6 °F 89% 29.81 in 9.0 mi NW 6.9 mph - 0.26 in Rain Light Rain
12:28 PM 77.0 °F - 73.4 °F 89% 29.79 in 10.0 mi NNW 3.5 mph - 0.04 in Rain Light Rain
12:53 PM 77.9 °F - 73.9 °F 88% 29.79 in 10.0 mi NW 4.6 mph - 0.04 in   Mostly Cloudy
1:46 PM 75.2 °F - 71.6 °F 89% 29.77 in 2.0 mi South 18.4 mph 35.7 mph 0.12 in Rain Heavy Rain
1:53 PM 75.9 °F - 71.6 °F 86% 29.76 in 5.0 mi South 6.9 mph 17.3 mph 0.14 in Rain Light Rain
2:24 PM 77.0 °F - 71.6 °F 83% 29.76 in 10.0 mi SW 5.8 mph - 0.02 in Rain Light Rain
2:53 PM 76.1 °F - 72.1 °F 87% 29.74 in 10.0 mi SW 3.5 mph - 0.04 in Rain Light Rain
3:53 PM 75.9 °F - 75.0 °F 97% 29.73 in 10.0 mi Calm Calm - 0.04 in Rain Light Rain
4:53 PM 77.0 °F - 75.0 °F 94% 29.70 in 10.0 mi ESE 3.5 mph - 0.07 in Rain Light Rain
5:53 PM 78.1 °F - 77.0 °F 96% 29.65 in 10.0 mi SSE 12.7 mph - 0.07 in Rain Light Rain
6:53 PM 80.1 °F 85.8 °F 77.0 °F 90% 29.67 in 10.0 mi SSE 11.5 mph - 0.03 in   Overcast
7:53 PM 81.0 °F 87.3 °F 75.9 °F 85% 29.67 in 10.0 mi SSE 16.1 mph 20.7 mph N/A   Overcast
8:53 PM 80.1 °F 85.8 °F 77.0 °F 90% 29.66 in 10.0 mi SSE 17.3 mph - 0.00 in   Overcast
9:53 PM 81.0 °F 87.9 °F 77.0 °F 88% 29.64 in 10.0 mi South 17.3 mph 28.8 mph 0.00 in Rain Light Rain
10:53 PM 80.1 °F 85.8 °F 77.0 °F 90% 29.66 in 10.0 mi South 20.7 mph 28.8 mph 0.00 in Rain Light Rain
11:53 PM 79.0 °F - 75.9 °F 90% 29.63 in 10.0 mi South 17.3 mph 24.2 mph 0.09 in Rain Light Rain